Flag for China Weather past 2 weeks in Changsha, Hunan, China

Now
77 °F

Fog.


Feels Like: 78 °F
Forecast: 75 / 89 °F
Wind: 3 mph from North

Location: Changsha

Current Time: Sep 1, 2014 at 10:45:13 PM

Latest Report: Sep 1, 2014 at 10:00 PM


Visibility: 2 mi

Pressure: 29.86 "Hg

Humidity: 83%

Dew point: 72 °F

Location of ChangshaLocation

Historic Weather in Changsha — Graph

°F

Changsha temperature yesterday

Maximum temperature yesterday: 97 °F (at 3:00 PM)
Minimum temperature yesterday: 77 °F (at 5:00 AM)
Average temperature yesterday: 85 °F

Past Weeks' High & Low Weather Summary

 TemperatureHumidityPressure
High97 °F (Aug 30, 3:00 PM)94% (Aug 18, 4:00 AM)29.95 "Hg (Aug 18, 4:00 AM)
Low70 °F (Aug 18, 7:00 PM)42% (Aug 30, 3:00 PM)29.65 "Hg (Aug 23, 4:00 PM)
Average80 °F77%29.83 "Hg
* Reported Aug 17 9:00 PM — Sep 1 9:00 PM, Changsha, Weather by CustomWeather, © 2014

Note: Actual official high and low records may vary slightly from our data, if they occured in-between our weather recording intervals... More about our weather records

Advertising

Changsha weather history for previous 24 hours

 ConditionsComfort  
Time TempWeatherWind HumidityBarometerVisibility
9:00 PM
Sep 1
77 °FFog.1 mph89%29.83 "Hg2 mi
8:00 PM79 °FFog.8 mph84%29.83 "Hg2 mi
7:00 PM81 °FFog.6 mph79%29.80 "Hg2 mi
6:00 PM82 °FFog.3 mph74%29.80 "Hg2 mi
5:00 PM82 °FScattered clouds.6 mph74%29.80 "Hg2 mi
4:00 PM88 °FScattered clouds.3 mph62%29.80 "Hg3 mi
3:00 PM88 °FScattered clouds.6 mph59%29.80 "Hg4 mi
2:00 PM84 °FScattered clouds.6 mph66%29.83 "Hg4 mi
1:00 PM84 °FScattered clouds.3 mph70%29.83 "Hg4 mi
12:00 PM82 °FPartly sunny.1 mph70%29.86 "Hg4 mi
11:00 AM81 °FFog.3 mph74%29.89 "Hg3 mi
10:00 AM79 °FFog.3 mph79%29.89 "Hg3 mi
9:00 AM77 °FFog.6 mph83%29.89 "Hg3 mi
8:00 AM77 °FFog.6 mph83%29.86 "Hg2 mi
7:00 AM75 °FFog.1 mph89%29.86 "Hg2 mi
6:00 AM75 °FFog.3 mph89%29.83 "Hg2 mi
5:00 AM77 °FMostly cloudy.3 mph83%29.83 "Hg4 mi
4:00 AM77 °FMostly cloudy.3 mph83%29.80 "Hg4 mi
3:00 AM77 °FFog.6 mph83%29.80 "Hg3 mi
2:00 AM77 °FFog.8 mph83%29.83 "Hg3 mi
1:00 AM77 °FFog.6 mph83%29.80 "Hg3 mi
12:00 AM79 °FFog.10 mph79%29.83 "Hg3 mi
11:00 PM
Aug 31
79 °FFog.8 mph84%29.83 "Hg3 mi
10:00 PM81 °FClear.8 mph79%29.83 "Hg4 mi
Weather by CustomWeather, © 2014

See weather overviewHow to use our weather pages